FW8419 Weather Reports


Display with metric or nautical units.
time (UTC)temp
F
wind
direction
speed
MPH
gust
MPH
rain 1hr
in
rain 24hr
in
rain mn
in
humidity
%
barometer
mb
20260901120124 57 123 0.0 3.0 0.00 0.00 0.00 89 1007.8
20260901115145 58 113 1.0 5.0 0.00 0.00 0.00 90 1007.9
20260901114124 58 126 1.0 6.0 0.00 0.00 0.00 90 1007.8
20260901113122 58 111 1.0 6.0 0.00 0.00 0.00 90 1007.8
20260901112123 58 125 3.0 10.0 0.00 0.00 0.00 90 1007.8
20260901111124 58 127 3.0 8.0 0.00 0.00 0.00 89 1007.8
20260901110124 58 126 3.0 6.0 0.00 0.00 0.00 89 1007.7
20260901105123 58 131 1.0 5.0 0.00 0.00 0.00 89 1007.8
20260901104125 58 123 1.0 3.0 0.00 0.00 0.00 89 1007.7
20260901103124 59 123 0.0 3.0 0.00 0.00 0.00 89 1007.7
20260901102122 59 123 0.0 2.0 0.00 0.00 0.00 89 1007.8
20260901101143 59 0 0.0 0.0 0.00 0.00 0.00 89 1007.7
20260901100122 59 123 0.0 3.0 0.00 0.00 0.00 88 1007.6
20260901095143 59 123 0.0 3.0 0.00 0.00 0.00 88 1007.6
20260901094122 59 123 0.0 2.0 0.00 0.00 0.00 88 1007.7
20260901093123 59 134 0.0 2.0 0.00 0.00 0.00 88 1007.8
20260901092123 59 118 1.0 6.0 0.00 0.00 0.00 88 1007.6
20260901091122 59 128 0.0 3.0 0.00 0.00 0.00 86 1007.6
20260901090143 60 0 0.0 0.0 0.00 0.00 0.00 86 1007.7
20260901085143 60 126 1.0 6.0 0.00 0.00 0.00 86 1007.7
20260901084122 60 126 2.0 6.0 0.00 0.00 0.00 86 1007.6
20260901083127 60 120 0.0 3.0 0.00 0.00 0.00 86 1007.7
20260901082123 60 0 0.0 0.0 0.00 0.00 0.00 85 1007.8
20260901081123 60 0 0.0 0.0 0.00 0.00 0.00 86 1007.6
20260901080143 60 0 0.0 0.0 0.00 0.00 0.00 86 1007.4
20260901075122 60 0 0.0 0.0 0.00 0.00 0.00 85 1007.4
20260901074122 61 0 0.0 0.0 0.00 0.00 0.00 85 1007.5
20260901073122 61 0 0.0 0.0 0.00 0.00 0.00 84 1007.5
20260901072122 61 0 0.0 0.0 0.00 0.00 0.00 84 1007.6
20260901071124 61 0 0.0 0.0 0.00 0.00 0.00 84 1007.5
20260901070124 62 0 0.0 0.0 0.00 0.00 0.00 83 1007.5
20260901065124 62 0 0.0 0.0 0.00 0.00 0.00 82 1007.4
20260901064124 62 0 0.0 0.0 0.00 0.00 0.00 83 1007.5
20260901063124 62 0 0.0 0.0 0.00 0.00 0.00 82 1007.5
20260901062124 63 0 0.0 0.0 0.00 0.00 0.00 81 1007.5
20260901061145 63 0 0.0 0.0 0.00 0.00 0.00 81 1007.7
20260901060122 63 0 0.0 0.0 0.00 0.00 0.00 81 1007.5
20260901055123 63 0 0.0 0.0 0.00 0.00 0.00 80 1007.6
20260901054123 64 0 0.0 0.0 0.00 0.00 0.00 80 1007.6
20260901053122 64 271 0.0 2.0 0.00 0.00 0.00 80 1007.6
20260901052122 64 271 0.0 3.0 0.00 0.00 0.00 80 1007.6
20260901051122 64 270 0.0 5.0 0.00 0.00 0.00 79 1007.5
20260901050122 65 280 0.0 5.0 0.00 0.00 0.00 78 1007.6
20260901045143 65 256 1.0 6.0 0.00 0.00 0.00 77 1007.5
20260901044122 65 264 0.0 5.0 0.00 0.00 0.00 76 1007.6
20260901043143 66 268 1.0 5.0 0.00 0.00 0.00 74 1007.6
20260901042127 66 267 0.0 3.0 0.00 0.00 0.00 73 1007.6
20260901041122 66 251 0.0 5.0 0.00 0.00 0.00 72 1007.6
20260901040122 67 0 0.0 0.0 0.00 0.00 0.00 70 1007.6
20260901035122 67 0 0.0 0.0 0.00 0.00 0.00 69 1007.6
20260901034122 67 259 0.0 3.0 0.00 0.00 0.00 68 1007.5
20260901033122 68 278 0.0 2.0 0.00 0.00 0.00 67 1007.5
20260901032143 68 283 0.0 5.0 0.00 0.00 0.00 64 1007.5
20260901031123 69 276 0.0 5.0 0.00 0.00 0.00 64 1007.6
20260901030122 69 294 1.0 6.0 0.00 0.00 0.00 64 1007.6
20260901025124 69 318 1.0 6.0 0.00 0.00 0.00 63 1007.7
20260901024124 69 317 1.0 6.0 0.00 0.00 0.00 63 1007.7
20260901023145 70 330 2.0 6.0 0.00 0.00 0.00 62 1007.8
20260901022122 70 321 2.0 10.0 0.00 0.00 0.00 62 1008.0
20260901021122 70 316 2.0 11.0 0.00 0.00 0.00 61 1007.9
20260901020122 70 313 4.0 13.0 0.00 0.00 0.00 60 1008.0
20260901015122 71 297 2.0 11.0 0.00 0.00 0.00 60 1008.1
20260901014122 71 294 2.0 13.0 0.00 0.00 0.00 59 1008.1
20260901013122 71 276 3.0 11.0 0.00 0.00 0.00 59 1008.2
20260901012122 72 284 3.0 11.0 0.00 0.00 0.00 59 1008.2
20260901011124 72 282 3.0 11.0 0.00 0.00 0.00 58 1008.3
20260901010122 73 274 2.0 13.0 0.00 0.00 0.00 57 1008.4
20260901005143 73 284 3.0 11.0 0.00 0.00 0.00 56 1008.4
20260901004143 75 286 3.0 11.0 0.00 0.00 0.00 55 1008.4
20260901003122 75 283 3.0 14.0 0.00 0.00 0.00 55 1008.5
20260901002125 75 285 4.0 13.0 0.00 0.00 0.00 55 1008.7
20260901001122 74 279 4.0 18.0 0.00 0.00 0.00 56 1008.9
20260901000124 74 282 4.0 16.0 0.00 0.00 0.00 55 1009.0
20260831235122 74 273 4.0 14.0 0.00 0.00 0.00 56 1009.0
20260831234122 74 263 5.0 18.0 0.00 0.00 0.00 55 1009.2
20260831233145 74 268 3.0 19.0 0.00 0.00 0.00 55 1009.3
20260831232124 74 264 4.0 14.0 0.00 0.00 0.00 55 1009.3
20260831231122 75 266 3.0 14.0 0.00 0.00 0.00 55 1009.4
20260831230143 75 271 4.0 16.0 0.00 0.00 0.00 55 1009.5
20260831225123 74 254 5.0 16.0 0.00 0.00 0.00 56 1009.6
20260831224122 75 267 5.0 14.0 0.00 0.00 0.00 56 1009.8
20260831223123 74 252 4.0 16.0 0.00 0.00 0.00 57 1010.0
20260831222124 74 255 5.0 14.0 0.00 0.00 0.00 56 1010.0
20260831221122 74 254 3.0 14.0 0.00 0.00 0.00 57 1010.1
20260831220124 74 245 4.0 14.0 0.00 0.00 0.00 57 1010.3
20260831215122 74 283 5.0 14.0 0.00 0.00 0.00 58 1010.5
20260831214124 74 260 4.0 14.0 0.00 0.00 0.00 58 1010.7
20260831213145 73 276 4.0 14.0 0.00 0.00 0.00 59 1010.8
20260831212150 73 262 3.0 14.0 0.00 0.00 0.00 59 1010.8
20260831211124 73 272 4.0 13.0 0.00 0.00 0.00 60 1010.9
20260831210122 73 286 3.0 13.0 0.00 0.00 0.00 60 1010.9
20260831205122 73 299 3.0 13.0 0.00 0.00 0.00 60 1011.1
20260831204122 73 283 4.0 14.0 0.00 0.00 0.00 59 1011.0
20260831203124 72 285 4.0 13.0 0.00 0.00 0.00 59 1011.1
20260831202122 73 282 2.0 10.0 0.00 0.00 0.00 58 1011.2
20260831201143 72 245 4.0 13.0 0.00 0.00 0.00 58 1011.3
20260831200143 72 292 3.0 13.0 0.00 0.00 0.00 59 1011.4
20260831195122 71 347 3.0 11.0 0.00 0.00 0.00 56 1011.5
20260831194124 71 21 3.0 10.0 0.00 0.00 0.00 58 1011.7
20260831193126 70 6 2.0 6.0 0.00 0.00 0.00 60 1012.0
20260831192129 70 6 1.0 8.0 0.00 0.00 0.00 59 1012.1
20260831191122 70 17 3.0 8.0 0.00 0.00 0.00 59 1012.2
20260831190123 70 291 1.0 8.0 0.00 0.00 0.00 61 1012.3
20260831185143 70 257 1.0 6.0 0.00 0.00 0.00 59 1012.6
20260831184124 69 241 1.0 6.0 0.00 0.00 0.00 62 1012.5
20260831183123 69 287 1.0 8.0 0.00 0.00 0.00 63 1012.7
20260831182143 69 253 2.0 6.0 0.00 0.00 0.00 64 1012.8
20260831181143 68 274 1.0 6.0 0.00 0.00 0.00 64 1013.0
20260831180124 68 274 1.0 6.0 0.00 0.00 0.00 64 1013.0
20260831175122 68 282 2.0 13.0 0.00 0.00 0.00 66 1013.1
20260831174122 67 41 1.0 6.0 0.00 0.00 0.00 68 1013.2
20260831173143 66 24 1.0 5.0 0.00 0.00 0.00 68 1013.4
20260831172122 66 42 2.0 6.0 0.00 0.00 0.00 69 1013.2
20260831171124 66 37 2.0 6.0 0.00 0.00 0.00 69 1013.3
20260831170122 66 42 2.0 6.0 0.00 0.00 0.00 68 1013.3
20260831165124 65 0 0.0 0.0 0.00 0.00 0.00 69 1013.4
20260831164127 65 0 0.0 0.0 0.00 0.00 0.00 70 1013.5
20260831163124 65 0 0.0 0.0 0.00 0.00 0.00 69 1013.6
20260831162127 64 0 0.0 0.0 0.00 0.00 0.00 70 1013.6
20260831161122 64 0 0.0 0.0 0.00 0.00 0.00 70 1013.7
20260831160122 64 0 0.0 0.0 0.00 0.00 0.00 72 1013.9
20260831155122 63 0 0.0 0.0 0.00 0.00 0.00 74 1014.1
20260831154122 63 0 0.0 0.0 0.00 0.00 0.00 76 1014.1
20260831153124 62 0 0.0 0.0 0.00 0.00 0.00 79 1014.2
20260831152124 61 0 0.0 0.0 0.00 0.00 0.00 79 1014.1
20260831151122 61 0 0.0 0.0 0.00 0.00 0.00 81 1014.2
20260831150122 59 0 0.0 0.0 0.00 0.00 0.00 84 1014.2
20260831145122 58 0 0.0 0.0 0.00 0.00 0.00 86 1014.1
20260831144122 57 0 0.0 0.0 0.00 0.00 0.00 87 1014.1
20260831143122 56 0 0.0 0.0 0.00 0.00 0.00 88 1014.1
20260831142123 56 0 0.0 0.0 0.00 0.00 0.00 89 1014.2
20260831141124 55 0 0.0 0.0 0.00 0.00 0.00 90 1014.1
20260831140122 54 0 0.0 0.0 0.00 0.00 0.00 90 1014.3
20260831135144 54 0 0.0 0.0 0.00 0.00 0.00 90 1014.2
20260831134123 54 0 0.0 0.0 0.00 0.00 0.00 89 1014.2
20260831133148 54 0 0.0 0.0 0.00 0.00 0.00 89 1014.2
20260831132124 54 0 0.0 0.0 0.00 0.00 0.00 88 1014.3
20260831131143 54 0 0.0 0.0 0.00 0.00 0.00 88 1014.3
20260831130122 54 0 0.0 0.0 0.00 0.00 0.00 88 1014.3
20260831125122 55 0 0.0 0.0 0.00 0.00 0.00 89 1014.4
20260831124124 55 0 0.0 0.0 0.00 0.00 0.00 89 1014.5
20260831123122 55 0 0.0 0.0 0.00 0.00 0.00 89 1014.6
20260831122122 55 0 0.0 0.0 0.00 0.00 0.00 89 1014.7
20260831121122 55 0 0.0 0.0 0.00 0.00 0.00 89 1014.6